Hourly Data Report for September 09, 2017

All times are specified in Local Standard Time (LST). Add 1 hour to adjust for Daylight Saving Time where and when it is observed.

SUSSEX FOUR CORNERS
NEW BRUNSWICK

45°44'30.048" N
65°31'44.039" W
47.00 m
8105210
71656
ASF

Download Data

Hourly Data (September 2017)
Hourly Data Report for September 9, 2017
Temp Definition
°C
Dew Point Temp Definition
°C
Rel Hum Definition
%
Wind Dir Definition
10's deg

Wind Spd Definition
km/h
Visibility Definition
km
Stn Press Definition
kPa
Hmdx Definition


Wind Chill Definition


Weather Definition


TIME
00:00 10.3 9.8 97 31 1   101.22     LegendNANA
01:00 9.4 9.0 97 36 2   101.21     LegendNANA
02:00 8.6 8.3 98 32 2   101.23     LegendNANA
03:00 7.6 7.4 99 28 6   101.26     LegendNANA
04:00 8.2 8.1 99 22 5   101.26     LegendNANA
05:00 8.5 8.5 100 29 2   101.30     LegendNANA
06:00 9.5 9.4 100 7 2   101.36     LegendNANA
07:00 9.4 9.3 100 7 4   101.44     LegendNANA
08:00 10.6 10.5 100 27 2   101.48     LegendNANA
09:00 11.4 11.3 100 8 3   101.52     LegendNANA
10:00 12.2 12.1 100 13 4   101.54     LegendNANA
11:00 14.5 13.8 96 8 4   101.52     LegendNANA
12:00 18.2 13.0 72 3 5   101.48     LegendNANA
13:00 19.6 13.2 67 4 7   101.47     LegendNANA
14:00 19.2 12.4 65 2 19   101.42     LegendNANA
15:00 20.6 13.9 66 34 12   101.40     LegendNANA
16:00 18.4 13.8 75 2 15   101.45     LegendNANA
17:00 18.1 13.6 75 4 10   101.49     LegendNANA
18:00 16.4 13.9 85 3 9   101.51     LegendNANA
19:00 15.0 13.7 92 35 6   101.53     LegendNANA
20:00 13.9 13.2 95 1 7   101.58     LegendNANA
21:00 13.8 13.1 95 2 7   101.63     LegendNANA
22:00 13.5 12.4 93 3 10   101.69     LegendNANA
23:00 13.0 12.0 94 3 6   101.68     LegendNANA

Notes on Data Quality.

Legend

  • E = Estimated
  • M = Missing
  • NA = Not Available
  • ‡ = Partner data that is not subject to review by the National Climate Archives
Date modified: